#timestamp,LO_Frequency,Hit,StdDev 
1642280415.1,286047001.5,N
1642280416.0,286047001.5,N
1642280435.8,286047000.4,N
1642280455.6,286046999.9,N
1642280475.5,286047000.4,N
1642280495.3,286046998.9,N
1642280515.2,286046999.3,N
1642280535.9,286046998.3,N
1642280555.7,286047001.7,N
1642280575.6,286047001.5,N
1642280595.4,286047001.8,N
1642280615.3,286047004.2,Y
1642280635.1,286047002.2,P
1642280636.0,286047002.2,N
1642280655.8,286047002.4,N
1642280675.7,286047002.5,N
1642280695.5,286047001.3,N
1642280715.3,286047002.9,Y
1642280735.2,286046999.8,P
1642280755.0,286047000.9,N
1642280755.9,286047000.9,N
1642280775.8,286047001.2,N
1642280795.6,286046998.3,N
1642280815.4,286046996.6,N
1642280835.3,286046997.5,N
1642280885.1,286046999.2,E
1642280895.1,286046998.4,N
1642280896.0,286046998.4,P
1642280915.8,286046999.4,P
1642280935.6,286046998.1,Y
1642280955.5,286047002.1,P
1642280975.3,286047000.4,N
1642280995.2,286047001.2,N
1642281015.9,286046998.4,N
1642281035.7,286047001.2,N
1642281055.6,286046999.7,N
1642281075.4,286046999.9,N
1642281095.2,286046999.7,N
1642281115.1,286047000.3,N
1642281116.0,286047000.3,N
1642281135.8,286046999.8,N
1642281155.7,286047004.0,Y
1642281175.5,286047001.3,P
1642281195.3,286047002.1,P
1642281215.2,286047001.0,N
1642281235.0,286046998.5,N
1642281235.9,286046998.5,N
1642281255.8,286047000.6,N
1642281275.6,286047002.7,N
1642281295.4,286047000.4,N
1642281315.3,286047001.2,N
1642281335.1,286046998.5,N
1642281355.8,286046998.4,N
1642281375.7,286047001.1,N
1642281395.5,286047004.1,N
1642281415.4,286047009.9,Y
1642281435.2,286047013.0,P
1642281455.0,286047016.4,N
1642281455.9,286047016.4,N
1642281475.8,286047016.7,N
1642281495.6,286047012.1,N
1642281515.4,286047009.5,N
1642281535.3,286047010.2,N
1642281555.1,286047008.0,N
1642281575.9,286047004.6,N
1642281595.7,286047005.3,N
1642281615.5,286047003.6,N
1642281635.4,286047001.6,N
1642281655.2,286047004.2,N
1642281675.1,286047004.9,N
1642281676.0,286047004.9,N
1642281695.8,286047003.4,N
1642281715.6,286047002.1,N
1642281735.5,286047000.2,N
1642281755.3,286047001.5,N
1642281775.1,286047000.3,N
1642281795.9,286046998.7,N
1642281815.7,286046999.6,N
1642281835.6,286046995.3,N
1642281855.4,286046995.0,N
1642281875.2,286046997.2,N
1642281895.1,286046997.8,N
1642281896.0,286046997.8,N
1642281915.8,286046998.9,N
1642281935.7,286046996.7,N
1642281955.5,286046997.2,N
1642281975.3,286046998.9,N
1642281995.2,286046999.6,N
1642282015.0,286046996.7,N
1642282015.9,286046996.7,N
1642282035.8,286046999.2,N
1642282055.6,286046998.4,N
1642282075.4,286047001.0,N
1642282095.3,286047000.6,N
1642282115.1,286047000.7,N
1642282135.8,286046998.1,N
1642282155.7,286047001.1,N
1642282175.5,286046998.7,N
1642282195.4,286046998.4,N
1642282215.2,286047000.5,N
1642282235.0,286047000.3,N
1642282235.9,286047000.3,N
1642282255.8,286046999.9,N
1642282275.6,286047002.8,N
1642282295.4,286047000.4,N
1642282315.3,286046999.0,N
1642282335.1,286047001.0,N
1642282355.9,286046998.1,N
1642282375.7,286047002.3,N
1642282395.5,286047000.1,N
1642282415.4,286047002.7,N
1642282435.2,286047000.6,N
1642282455.0,286047002.7,N
1642282456.0,286047002.7,N
1642282475.8,286046998.1,N
1642282495.6,286046996.5,N
1642282515.5,286046998.9,N
1642282535.3,286046998.9,N
1642282555.1,286047001.0,N
1642282575.9,286047001.2,N
1642282595.7,286047001.1,N
1642282615.6,286047002.2,N
1642282635.4,286047002.2,N
1642282655.2,286047001.1,N
1642282675.1,286046998.7,N
1642282676.0,286046998.7,N
1642282695.8,286046998.8,N
1642282715.7,286046998.5,N
1642282735.5,286047000.4,N
1642282755.3,286046998.1,N
1642282775.2,286047000.9,N
1642282795.9,286046999.0,N
1642282815.7,286046998.4,N
1642282835.6,286046996.6,N
1642282855.4,286046999.4,N
1642282875.3,286046997.3,N
1642282895.1,286046996.8,N
1642282896.0,286046996.8,N
1642282915.8,286046999.6,N
1642282935.7,286046998.6,N
1642282955.5,286047000.8,N
1642282975.3,286047001.1,N
1642282995.2,286047001.9,N
1642283015.0,286047001.6,N
1642283015.9,286047001.6,N
1642283035.8,286047001.6,N
1642283055.6,286047002.3,N
1642283075.4,286047001.8,N
1642283095.3,286047001.9,N
1642283115.1,286047001.5,N
1642283165.9,286046999.8,E
1642283175.8,286047002.6,N
1642283195.6,286047001.4,P
1642283215.5,286047000.3,N
1642283235.3,286046998.4,N
1642283255.2,286046998.1,N
1642283275.9,286047000.7,N
1642283295.7,286046999.3,N
1642283315.6,286046996.8,N
1642283335.4,286046998.4,N
1642283355.2,286046999.0,N
1642283375.1,286046998.9,N
1642283376.0,286046998.9,N
1642283395.8,286046996.5,N
1642283415.7,286046997.0,N
1642283435.5,286046998.9,N
1642283455.3,286046998.9,N
1642283475.2,286046999.5,N
1642283495.0,286046996.7,N
1642283495.9,286046996.7,N
1642283515.7,286046999.2,N
1642283535.6,286046998.1,N
1642283555.4,286046998.3,N
1642283575.3,286047001.1,N
1642283595.1,286046998.8,N
1642283596.0,286046998.8,N
1642283615.8,286046996.7,N
1642283635.7,286046997.6,N
1642283655.5,286046995.2,Y
1642283675.4,286046999.4,P
1642283695.2,286046998.4,P
1642283715.0,286047000.6,N
1642283715.9,286047000.6,N
1642283735.8,286047000.8,N
1642283755.6,286047000.6,N
1642283775.4,286047001.0,N
1642283795.3,286047001.2,N
1642283815.1,286046998.7,N
1642283835.9,286047000.5,N
1642283855.7,286046999.8,N
1642283875.5,286047000.1,N
1642283895.4,286046999.7,N
1642283915.2,286047000.7,N
1642283935.0,286047000.9,N
1642283935.9,286047000.9,N
1642283955.8,286047000.6,N
1642283975.6,286047002.2,N
1642283995.5,286047002.0,N
